BLOCK DM-SL DEB, 46091

Orbit data source: Space-Track

BLOCK DM-SL DEB, 46091 is space debris in GEO originally from a launch on Tue, 24 Dec 2019 UTC launched from the Tyuratam Missile And Space Complex (TTMTR). Debris objects in space refer to the collection of defunct objects orbiting the Earth. Examples of debris include non-operational satellites, rocket bodies, and fragments generated from explosions, collisions, or faulty payload assembly.

Loading next visibility...
Identifier
46091, 2019-095E
Orbit
GEO
Last TLE update
4 days ago
Origin
Manufacturer
Lavochkin
Mission
Spacecraft
Bus & Motor
Unknown
Mass
Unknown
Launch date (UTC)
2019-12-24 (5 years ago)
Launch vehicle
Unknown
Launch site
Tyuratam Missile And Space Complex (TTMTR)
Object type
Payload
Rocket body
Debris
Shape & HBR
Unknown
Radar Cross Section
Medium (>0.1 m² and <1 m²)

Expand to show TLE details & history

TLE from 4 days ago
0 BLOCK DM-SL DEB
1 46091U 19095E   25117.12760639  .00000011  00000-0  00000+0 0  9995
2 46091   4.2920  78.8282 0108507 263.3557  95.4136  1.03259794 19431
Epoch: 2025-04-27T03:03Z
Definitive object data (Epoch: 2025-04-27T03:03:45.192Z)
Latitude
-0.00001°
Longitude
177.52667°
Altitude
35,013.392 km
Speed
3.102 km/s
True Right ascension
05h 15m 18s
True Declination
0° 00' 00"
Sunlit
Object was in daylight at TLE epoch
Visualization TLE readout
Latitude
-1.61965°
Longitude
155.20302°
Altitude
34,840.378 km
Speed
3.115 km/s
Apparent Right ascension
03h 28m 12s
Apparent Declination
-7° 58' 29"
Sunlit
Object is in daylight
Visualization observer readout
Local Sidereal Time
06:11:11
Azimuth
227.719° WSW
Elevation
29.105°
Doppler factor
1
Orbital elements
Apogee altitude
35,418.953 km
Perigee altitude
34,521.635 km
Semi-major axis
41,348.431 km
Eccentricity
0.0108507
Inclination
4.292°
RAAN
78.8282°
Arg. of periapsis
263.3557°
True anomaly
96.64977°
Mean anomaly
95.4136°
Eccentric anomaly
96.03186°
Mean motion
0.25814 °/min
BSTAR
Unknown
Orbital period
1394.59 mins
Loading historical data...
46091 neighbors
Loading maneuver chart data...
Loading SW <> Apogee altitude chart data...
Loading historical data...
Loading historical data...
Loading historical data...
Loading historical data...
Loading historical data...
Loading historical data...
Loading historical data...
Other satellites on launch #95 in the year 2019 (2019-12-24 UTC)

BLOCK DM-SL DEB Visibility forecast

Observer location: undefined°, undefined°

Span
Click to sort rows by Start time (UTC) header in descending order
Start Az.
Max El. time (UTC)
Max El. Az.
Max El.
End time (UTC)
End Az.
1440 mins2025-04-30 22:35:11.739Z227.706° WSW2025-05-01 22:35:11.739Z216.166° SW30.415°2025-05-01 22:35:11.739Z216.166° SW
|